{"data":{"norad_id":45986,"epoch":"2026-09-20T03:36:55.923264Z","epoch_age_seconds":52095,"freshness":"FRESH","line1":"1 45986U 20053B   26263.15064726 -.00000172  00000+0  00000+0 0  9991","line2":"2 45986   0.0242 175.9861 0070018  61.1971 256.3982  1.00401241 22596","mean_motion":1.00401241,"eccentricity":0.0070018,"inclination_deg":0.0242,"raan_deg":175.9861,"arg_perigee_deg":61.1971,"mean_anomaly_deg":256.3982,"bstar":0,"rev_number":2259,"period_min":1434.2452201363,"perigee_km":35455.367555613,"apogee_km":36045.317934571,"semimajor_km":42128.479745092,"source":"CELESTRAK","updated_at":"2026-09-20T09:00:35.294714Z"}}